Location: Roc des P�zouls
(43.9667°N, 3.5500°E)
Time: 08:08:54
(UTC+00:00)

STARLINK-48 - Pass Details

Date: 14 November 2019
Orbit: 506 x 508 km, 53.0° (Epoch: 06 December)

Event Time Altitude Azimuth Distance (km) Brightness Sun altitude
Exits shadow 03:56:02 11° 147° (SSE) 1,631 6.3 -29.3°
Drops below altitude 10° 03:58:58 10° 101° (E) 1,709 7.0 -28.8°
Enters shadow 05:01:11 -61° 233° (SW) 11,728 10.3 -17.6°
Maximum altitude 05:35:14 82° 146° (SSE) 511 3.5 -11.6°
